When you browse on this site, cookies collect data to enhance your experience and personalize the content and advertising you see.
Visit our Privacy Policy to learn more. By continuing to use the site, you agree to this use of cookies and data.
  • In Lithuania
  • List of Countries
  • For 7 days
  • Water Temperature
  • Satellite Maps
  • Weather Map
  • Weather Widgets
  • user-avatar
    Login

    Hourly Weather Santiago del Estero

    Today, 22 February, Friday

    Time Temperature Precipitation Wind Pressure Humidity
    00:00 +33°C° 0 mm 3 mps 738 mmHg 43%
    01:00 +32°C° 0 mm 4 mps 738 mmHg 44%
    02:00 +30°C° 0 mm 4 mps 737 mmHg 45%
    03:00 +30°C° 0 mm 4 mps 738 mmHg 46%
    04:00 +30°C° 0 mm 4 mps 738 mmHg 47%
    05:00 +30°C° 0 mm 5 mps 738 mmHg 47%
    06:00 +30°C° 0 mm 5 mps 738 mmHg 47%
    07:00 +32°C° 0 mm 6 mps 738 mmHg 46%
    08:00 +33°C° 0 mm 7 mps 739 mmHg 45%
    09:00 +35°C° 0 mm 7 mps 739 mmHg 40%
    10:00 +38°C° 0 mm 8 mps 739 mmHg 35%
    11:00 +41°C° 0 mm 8 mps 739 mmHg 30%
    12:00 +43°C° 0 mm 7 mps 738 mmHg 28%
    13:00 +44°C° 0 mm 7 mps 738 mmHg 25%
    14:00 +46°C° 0 mm 7 mps 737 mmHg 23%
    15:00 +46°C° 0 mm 6 mps 736 mmHg 22%
    16:00 +46°C° 0 mm 6 mps 736 mmHg 21%
    17:00 +46°C° 0 mm 5 mps 735 mmHg 21%
    18:00 +42°C° 0 mm 4 mps 735 mmHg 24%
    19:00 +38°C° 0 mm 3 mps 736 mmHg 28%
    20:00 +36°C° 0 mm 3 mps 736 mmHg 31%
    21:00 +35°C° 0 mm 3 mps 736 mmHg 32%
    22:00 +34°C° 0 mm 3 mps 737 mmHg 33%
    23:00 +34°C° 0 mm 3 mps 737 mmHg 34%

    Tomorrow, 23 February, Saturday

    Time Temperature Precipitation Wind Pressure Humidity
    00:00 +33°C° 0 mm 3 mps 737 mmHg 36%
    01:00 +31°C° 0 mm 2 mps 736 mmHg 39%
    02:00 +30°C° 0 mm 2 mps 736 mmHg 41%
    03:00 +29°C° 0 mm 2 mps 736 mmHg 42%
    04:00 +29°C° 0 mm 3 mps 736 mmHg 43%
    05:00 +28°C° 0 mm 3 mps 735 mmHg 44%
    06:00 +29°C° 0 mm 3 mps 736 mmHg 43%
    07:00 +30°C° 0 mm 3 mps 736 mmHg 43%
    08:00 +31°C° 0 mm 3 mps 736 mmHg 43%
    09:00 +35°C° 0 mm 4 mps 736 mmHg 38%
    10:00 +39°C° 0 mm 5 mps 736 mmHg 32%
    11:00 +41°C° 0 mm 6 mps 736 mmHg 27%
    12:00 +44°C° 0 mm 6 mps 735 mmHg 25%
    13:00 +45°C° 0 mm 7 mps 734 mmHg 22%
    14:00 +46°C° 0 mm 7 mps 734 mmHg 19%
    15:00 +46°C° 0 mm 7 mps 733 mmHg 20%
    16:00 +46°C° 0 mm 6 mps 732 mmHg 20%
    17:00 +46°C° 0 mm 6 mps 731 mmHg 20%
    18:00 +42°C° 0 mm 5 mps 731 mmHg 24%
    19:00 +40°C° 0 mm 4 mps 731 mmHg 28%
    20:00 +37°C° 0 mm 3 mps 732 mmHg 31%
    21:00 +36°C° 0 mm 3 mps 732 mmHg 33%
    22:00 +35°C° 0 mm 3 mps 732 mmHg 35%
    23:00 +34°C° 0 mm 3 mps 732 mmHg 37%

    Day after tomorrow, 24 February, Sunday

    Time Temperature Precipitation Wind Pressure Humidity
    00:00 +33°C° 0 mm 3 mps 732 mmHg 39%
    01:00 +31°C° 0 mm 2 mps 732 mmHg 41%
    02:00 +30°C° 0 mm 2 mps 732 mmHg 43%
    03:00 +30°C° 0 mm 2 mps 732 mmHg 45%
    04:00 +29°C° 0 mm 2 mps 732 mmHg 47%
    05:00 +28°C° 0 mm 3 mps 732 mmHg 48%
    06:00 +29°C° 0 mm 4 mps 733 mmHg 54%
    07:00 +29°C° 0 mm 5 mps 734 mmHg 60%
    08:00 +29°C° 0 mm 6 mps 735 mmHg 66%
    09:00 +32°C° 0 mm 6 mps 735 mmHg 59%
    10:00 +34°C° 0 mm 6 mps 736 mmHg 53%
    11:00 +36°C° 0 mm 6 mps 736 mmHg 46%
    12:00 +37°C° 0 mm 5 mps 736 mmHg 43%
    13:00 +39°C° 0 mm 5 mps 735 mmHg 39%
    14:00 +41°C° 0 mm 5 mps 735 mmHg 36%
    15:00 +40°C° 0 mm 5 mps 734 mmHg 36%
    16:00 +40°C° 0 mm 5 mps 734 mmHg 36%
    17:00 +40°C° 0 mm 6 mps 733 mmHg 36%
    18:00 +37°C° 0 mm 5 mps 734 mmHg 41%
    19:00 +35°C° 0 mm 5 mps 735 mmHg 46%
    20:00 +33°C° 0 mm 5 mps 735 mmHg 51%
    21:00 +30°C° 1.6 mm 5 mps 736 mmHg 63%
    22:00 +28°C° 1.6 mm 5 mps 737 mmHg 75%
    23:00 +26°C° 1.6 mm 5 mps 738 mmHg 86%

    25 February, Monday

    Time Temperature Precipitation Wind Pressure Humidity
    00:00 +25°C° 2.6 mm 4 mps 738 mmHg 88%
    01:00 +25°C° 2.6 mm 4 mps 738 mmHg 89%
    02:00 +24°C° 2.6 mm 3 mps 738 mmHg 91%
    03:00 +24°C° 0.5 mm 3 mps 738 mmHg 90%
    04:00 +24°C° 0.5 mm 3 mps 738 mmHg 90%
    05:00 +23°C° 0.5 mm 4 mps 739 mmHg 89%
    06:00 +23°C° 0.2 mm 4 mps 739 mmHg 86%
    07:00 +23°C° 0.2 mm 4 mps 740 mmHg 84%
    08:00 +23°C° 0.2 mm 5 mps 741 mmHg 81%
    09:00 +25°C° 0 mm 4 mps 742 mmHg 70%
    10:00 +27°C° 0 mm 4 mps 742 mmHg 59%
    11:00 +28°C° 0 mm 4 mps 743 mmHg 48%
    12:00 +29°C° 0 mm 3 mps 742 mmHg 46%
    13:00 +29°C° 0 mm 3 mps 742 mmHg 44%
    14:00 +30°C° 0 mm 2 mps 742 mmHg 42%
    15:00 +29°C° 0 mm 2 mps 741 mmHg 45%
    16:00 +29°C° 0 mm 3 mps 741 mmHg 49%
    17:00 +28°C° 0 mm 3 mps 741 mmHg 52%
    18:00 +27°C° 0 mm 3 mps 741 mmHg 57%
    19:00 +26°C° 0 mm 4 mps 742 mmHg 62%
    20:00 +25°C° 0 mm 5 mps 742 mmHg 67%
    21:00 +25°C° 0 mm 5 mps 742 mmHg 68%
    22:00 +25°C° 0 mm 4 mps 743 mmHg 68%
    23:00 +23°C° 0 mm 4 mps 743 mmHg 69%

    26 February, Tuesday

    Time Temperature Precipitation Wind Pressure Humidity
    00:00 +23°C° 0 mm 4 mps 743 mmHg 68%
    01:00 +23°C° 0 mm 4 mps 743 mmHg 67%
    02:00 +22°C° 0 mm 3 mps 743 mmHg 65%
    03:00 +22°C° 0 mm 3 mps 743 mmHg 64%
    04:00 +22°C° 0 mm 3 mps 743 mmHg 62%
    05:00 +22°C° 0 mm 3 mps 744 mmHg 60%
    06:00 +22°C° 0 mm 3 mps 744 mmHg 59%
    07:00 +22°C° 0 mm 3 mps 745 mmHg 59%
    08:00 +22°C° 0 mm 3 mps 746 mmHg 59%
    09:00 +22°C° 0.1 mm 3 mps 746 mmHg 59%
    10:00 +22°C° 0.1 mm 3 mps 746 mmHg 58%
    11:00 +22°C° 0.1 mm 4 mps 747 mmHg 58%
    12:00 +22°C° 0 mm 4 mps 746 mmHg 56%
    13:00 +23°C° 0 mm 4 mps 746 mmHg 54%
    14:00 +23°C° 0 mm 4 mps 745 mmHg 51%
    15:00 +25°C° 0 mm 3 mps 745 mmHg 49%
    16:00 +26°C° 0 mm 3 mps 744 mmHg 47%
    17:00 +27°C° 0 mm 3 mps 744 mmHg 45%
    18:00 +25°C° 0 mm 3 mps 744 mmHg 49%
    19:00 +24°C° 0 mm 2 mps 744 mmHg 53%
    20:00 +21°C° 0 mm 2 mps 744 mmHg 57%
    21:00 +21°C° 0 mm 2 mps 744 mmHg 57%
    22:00 +20°C° 0 mm 2 mps 744 mmHg 57%
    23:00 +20°C° 0 mm 2 mps 745 mmHg 58%

    27 February, Wednesday

    Time Temperature Precipitation Wind Pressure Humidity
    00:00 +20°C° 0 mm 2 mps 744 mmHg 58%
    01:00 +20°C° 0 mm 1 mps 744 mmHg 58%
    02:00 +20°C° 0 mm 1 mps 744 mmHg 58%
    03:00 +20°C° 0 mm 1 mps 744 mmHg 56%
    04:00 +21°C° 0 mm 1 mps 744 mmHg 54%
    05:00 +21°C° 0 mm 1 mps 744 mmHg 53%
    06:00 +21°C° 0 mm 1 mps 744 mmHg 52%
    07:00 +21°C° 0 mm 2 mps 745 mmHg 51%
    08:00 +21°C° 0 mm 2 mps 745 mmHg 50%
    09:00 +24°C° 0 mm 3 mps 745 mmHg 46%
    10:00 +26°C° 0 mm 4 mps 744 mmHg 42%
    11:00 +28°C° 0 mm 4 mps 744 mmHg 37%
    12:00 +29°C° 0 mm 4 mps 743 mmHg 36%
    13:00 +32°C° 0 mm 4 mps 742 mmHg 35%
    14:00 +33°C° 0 mm 4 mps 741 mmHg 34%
    15:00 +33°C° 0 mm 4 mps 741 mmHg 34%
    16:00 +33°C° 0 mm 4 mps 740 mmHg 34%
    17:00 +33°C° 0 mm 4 mps 740 mmHg 35%
    18:00 +30°C° 0 mm 3 mps 740 mmHg 39%
    19:00 +28°C° 0 mm 3 mps 740 mmHg 43%
    20:00 +26°C° 0 mm 2 mps 741 mmHg 47%
    21:00 +25°C° 0 mm 2 mps 741 mmHg 47%
    22:00 +25°C° 0 mm 3 mps 741 mmHg 46%
    23:00 +25°C° 0 mm 3 mps 741 mmHg 46%
    Show more